Wetbulb
38.25 37.38 36.30 36.28 36.27 36.17 35.66 35.79 35.97 36.32 36.77 37.11 37.58 37.16 36.93 36.64 36.22 34.64 33.99 34.55 35.28 36.63 37.55 34.68 34.32 34.40 33.96 34.49 37.90 37.28 37.21 36.43 33.50 35.76 37.76 39.93 36.69 35.06 36.13 37.21 38.80 39.51 40.62
38.70 37.50 36.86 36.31 35.97 35.02 34.69 35.26 36.06 35.75 36.59 36.87 36.71 36.25 36.44 36.59 35.65 34.39 34.22 34.89 37.23 36.86 37.37 35.08 34.46 36.85 33.66 33.72 37.47 38.83 38.23 37.45 36.50 33.93 34.49 34.61 34.77 33.97 33.74 33.64 35.87 37.99 38.02
38.16 37.36 36.33 36.30 35.33 34.64 34.72 35.31 35.78 35.38 35.28 35.31 35.59 34.93 35.67 36.10 35.32 34.71 34.94 37.14 36.69 36.45 36.71 35.77 34.93 33.89 32.85 33.44 36.29 39.01 38.43 38.34 37.61 35.59 33.68 33.32 36.23 33.69 31.64 33.16 34.10 33.76 37.87
38.05 37.25 36.97 36.40 36.14 35.38 35.13 35.20 35.44 35.34 34.72 34.44 34.61 34.69 35.75 35.75 35.73 35.19 36.64 36.15 36.30 36.87 37.31 37.07 35.38 33.55 32.99 35.73 36.57 39.22 38.50 37.31 37.23 36.25 35.29 34.23 35.84 35.28 31.67 32.76 32.36 32.67 32.75
37.57 37.14 37.09 37.02 36.12 35.38 35.16 35.28 35.54 35.28 35.12 34.72 34.26 34.06 34.33 34.71 36.26 34.06 35.79 35.72 36.02 35.98 36.88 37.43 35.66 37.28 42.23 41.93 38.79 39.01 38.76 37.14 37.11 36.06 34.13 33.45 33.54 33.78 32.42 34.25 32.62 29.66 26.76
37.68 37.58 37.84 36.28 36.34 35.88 35.46 35.25 35.03 34.94 34.58 33.93 33.31 33.36 33.06 35.39 40.42 42.67 41.01 35.42 36.80 36.38 35.48 36.48 34.82 38.58 37.38 42.10 43.46 43.13 40.52 37.33 33.45 34.67 33.28 32.02 32.72 33.20 34.04 33.21 32.37 31.62 29.27
37.78 37.84 37.29 36.99 36.52 36.28 36.16 35.37 34.64 33.92 33.49 32.58 32.14 32.15 31.97 32.47 41.37 43.40 43.87 37.26 36.47 35.26 35.05 35.09 34.12 36.17 36.76 35.20 39.57 40.62 39.15 41.25 40.21 35.42 33.41 33.74 32.77 33.32 34.08 32.28 32.12 31.89 31.77
37.51 37.48 37.36 37.06 36.78 36.21 35.43 35.46 34.17 33.60 33.17 32.17 31.79 31.97 31.74 33.87 41.92 43.64 43.85 36.50 35.68 35.18 35.45 34.54 32.09 32.32 34.07 37.43 34.41 32.43 32.71 33.01 34.51 38.01 35.72 36.29 36.11 33.70 35.50 34.49 32.85 32.48 33.20
37.02 37.05 37.31 37.37 36.78 35.88 35.21 34.88 34.76 33.13 32.28 32.02 32.26 31.98 31.51 32.57 41.28 43.28 41.72 35.59 35.45 35.08 36.15 34.22 32.70 32.32 38.20 41.62 33.54 31.30 30.49 31.00 37.07 40.21 41.33 41.49 40.63 40.29 37.14 30.39 27.75 31.56 29.91
37.48 37.54 37.76 37.48 37.23 36.02 36.21 34.27 34.81 33.23 34.26 34.11 33.58 32.51 36.16 33.10 40.13 42.95 41.92 35.64 34.26 35.09 35.32 35.47 38.92 35.53 40.60 40.77 32.33 29.84 23.61 25.91 30.28 31.35 31.65 32.13 34.87 34.37 38.91 31.51 30.79 25.77 29.95
38.05 37.30 36.99 37.27 37.21 36.87 35.57 34.60 34.06 33.89 34.24 33.22 33.77 33.57 33.23 34.35 34.35 42.15 43.57 35.99 35.38 34.94 35.01 34.44 33.38 39.72 40.47 40.39 39.10 30.77 30.77 31.29 31.17 28.01 27.88 28.09 30.01 30.12 30.57 31.01 31.18 30.05 24.82
36.43 36.88 36.80 36.85 37.47 36.99 35.09 34.62 34.12 33.93 32.95 32.91 32.96 33.39 33.85 34.03 39.79 41.75 43.93 43.69 40.87 35.88 36.46 35.41 33.28 39.73 40.05 39.46 37.06 38.28 38.72 33.39 28.02 27.69 27.67 25.50 25.24 24.66 25.02 27.18 30.78 31.05 31.46
35.64 35.82 36.22 36.78 36.84 36.84 34.82 34.60 33.76 34.03 34.33 34.14 33.92 33.71 33.76 34.66 34.46 41.61 44.10 44.57 44.47 38.89 36.98 37.21 39.39 40.98 40.46 36.17 37.68 38.69 35.84 28.42 27.25 26.51 26.18 26.62 27.19 28.02 28.50 29.31 30.67 30.54 30.77
36.13 35.64 35.26 35.64 35.97 35.90 36.52 36.33 35.58 34.98 34.71 34.77 34.33 34.19 34.23 33.90 33.60 33.89 35.87 37.95 42.86 38.90 39.16 34.67 36.73 38.19 38.61 35.86 35.07 31.37 29.63 28.85 27.50 26.59 25.97 26.15 27.12 27.98 27.74 27.75 27.87 28.06 27.35
36.61 36.15 35.64 36.04 37.44 35.65 36.35 36.36 36.61 37.20 37.63 35.82 35.70 35.44 33.95 33.54 34.48 37.24 36.80 34.82 34.01 35.66 34.26 31.23 29.50 28.89 28.54 28.38 28.74 29.51 28.63 28.63 27.64 26.92 26.20 26.44 27.45 27.83 28.26 28.11 28.04 27.36 25.93
36.06 36.39 36.29 36.06 35.81 36.63 35.73 35.38 41.10 41.48 41.60 42.85 42.01 38.26 36.66 40.22 41.52 42.45 42.35 41.54 40.83 40.54 31.90 28.49 27.92 27.49 27.35 27.31 27.37 27.45 28.43 30.85 28.53 27.69 26.70 26.63 27.15 27.62 28.33 28.35 28.23 26.38 25.77
36.62 37.03 36.33 37.60 35.85 35.68 35.40 34.93 34.05 36.73 43.32 43.28 43.42 43.74 43.54 40.53 42.92 43.33 42.96 42.25 41.38 39.12 29.50 27.93 27.46 27.46 27.62 27.93 27.42 27.52 27.76 28.43 28.67 28.01 27.14 26.79 27.77 28.07 28.08 27.90 27.49 27.55 27.33
36.59 41.06 36.55 36.39 36.41 35.73 35.62 35.58 35.31 34.09 33.64 36.28 42.64 43.29 44.71 43.18 42.46 42.40 42.12 40.75 32.78 34.61 29.02 27.87 27.32 27.87 28.04 27.83 27.96 27.93 28.44 28.84 28.62 28.45 27.54 27.43 26.95 27.66 27.46 26.53 26.09 25.58 25.82
36.22 36.58 37.83 36.03 36.16 36.74 35.72 35.40 35.13 34.69 34.37 33.45 34.18 40.34 43.18 43.86 43.16 42.56 41.56 32.21 30.25 29.16 28.90 27.96 28.36 28.32 28.36 28.29 29.19 29.78 29.39 29.03 29.00 28.17 28.10 27.68 27.40 26.78 25.98 25.66 25.37 29.92 28.41
36.03 39.50 38.86 35.65 34.98 35.31 34.83 34.65 34.35 34.13 33.86 33.86 33.77 34.59 35.52 39.21 36.25 35.86 36.12 32.02 29.60 28.96 29.42 28.83 28.75 28.59 28.79 29.02 29.42 29.80 29.32 29.89 28.26 27.95 27.57 27.68 27.99 27.18 26.08 25.51 25.31 25.15 24.72
35.86 35.84 39.95 36.01 34.28 34.61 34.54 34.24 34.56 34.16 33.86 33.54 33.84 35.30 38.41 35.90 34.80 34.41 33.32 31.71 30.60 29.49 28.95 28.92 28.77 28.84 29.04 29.17 29.05 29.25 28.76 28.63 28.14 28.35 27.99 28.17 28.40 27.32 26.92 26.24 26.17 26.04 25.45
35.50 35.30 35.74 36.67 34.85 34.42 34.22 34.41 34.36 34.24 34.01 33.47 32.33 34.07 39.66 36.11 33.64 33.25 32.59 32.03 30.65 30.31 30.38 30.01 29.43 29.54 29.59 29.63 29.50 28.76 28.16 28.17 28.38 29.59 28.68 28.72 28.64 28.08 26.73 26.23 26.42 25.50 25.86
35.24 34.78 34.52 35.07 35.40 36.25 35.15 34.08 33.83 34.21 33.89 33.54 32.96 32.98 35.06 35.37 32.42 32.08 31.81 31.26 30.04 29.62 29.70 29.73 29.53 29.08 29.95 30.25 30.38 29.79 28.48 28.37 29.59 31.94 31.30 29.26 28.32 27.85 26.90 25.85 26.05 25.73 26.09
35.34 34.79 34.22 33.69 34.32 34.00 33.79 34.03 34.20 34.90 34.04 33.26 32.99 32.97 32.92 34.65 32.72 31.81 31.06 30.28 29.75 29.69 29.68 29.89 29.92 29.76 30.10 30.10 30.36 30.70 30.74 31.34 33.38 33.15 32.36 30.68 28.40 28.12 26.14 25.65 25.90 26.30 25.92
35.17 34.78 33.82 33.33 33.30 34.60 33.67 33.88 34.28 33.90 34.11 33.93 33.23 33.03 32.85 33.36 32.13 31.35 30.39 29.84 29.57 29.23 29.32 29.81 30.07 30.36 30.27 30.06 30.17 30.88 32.68 33.62 32.97 33.02 31.71 30.74 28.81 27.63 26.33 25.90 26.23 26.21 25.85
34.92 35.28 34.76 33.77 33.38 33.55 34.17 33.99 34.54 34.57 33.67 34.20 33.94 33.02 32.42 32.10 31.76 31.17 30.37 29.57 29.29 29.29 29.39 29.75 30.01 30.30 30.35 30.39 31.09 32.18 33.06 33.38 32.48 32.87 31.44 30.25 29.07 27.21 26.28 26.44 26.69 25.85 25.47
MSLP
1023.28 1023.67 1024.08 1024.41 1024.71 1024.98 1025.16 1025.27 1025.34 1025.31 1025.34 1025.43 1025.24 1025.18 1025.14 1025.13 1025.08 1025.14 1025.01 1024.78 1024.65 1024.63 1024.33 1024.16 1023.91 1023.78 1023.54 1023.30 1022.98 1022.60 1022.34 1022.06 1021.62 1020.69 1020.12 1019.40 1019.12 1018.92 1018.06 1017.22 1016.34 1015.47 1014.86
1022.42 1023.01 1023.42 1023.79 1024.13 1024.38 1024.47 1024.63 1024.67 1024.79 1024.76 1024.89 1024.79 1024.82 1024.82 1024.76 1024.71 1024.70 1024.59 1024.40 1024.36 1024.33 1024.06 1023.83 1023.60 1023.35 1023.18 1022.94 1022.54 1022.11 1021.84 1021.50 1021.26 1020.73 1020.19 1019.68 1019.29 1019.18 1018.80 1017.98 1017.19 1016.30 1015.23
1021.73 1022.25 1022.74 1023.09 1023.49 1023.74 1023.86 1024.03 1024.12 1024.31 1024.36 1024.41 1024.38 1024.42 1024.41 1024.36 1024.30 1024.21 1024.15 1024.04 1023.98 1023.91 1023.63 1023.44 1023.18 1023.00 1022.83 1022.43 1022.08 1021.68 1021.46 1021.12 1020.83 1020.67 1020.32 1019.87 1019.35 1019.30 1018.93 1018.25 1017.78 1017.15 1016.09
1020.99 1021.50 1021.93 1022.24 1022.54 1022.87 1023.19 1023.46 1023.62 1023.65 1023.90 1024.03 1024.00 1023.98 1023.96 1023.89 1023.74 1023.64 1023.65 1023.65 1023.51 1023.38 1023.17 1023.00 1022.69 1022.51 1022.20 1021.79 1021.50 1021.14 1020.98 1020.85 1020.56 1020.39 1020.21 1019.98 1019.46 1019.21 1018.95 1018.51 1017.74 1017.39 1017.05
1020.20 1020.74 1020.95 1021.37 1021.82 1022.20 1022.51 1022.78 1022.96 1023.15 1023.32 1023.43 1023.55 1023.50 1023.52 1023.41 1023.12 1022.97 1023.00 1023.15 1023.06 1022.94 1022.78 1022.62 1022.24 1021.90 1021.10 1021.09 1020.99 1020.83 1020.64 1020.61 1020.46 1020.35 1020.28 1020.18 1019.78 1019.47 1019.15 1018.87 1018.45 1017.82 1017.76
1019.17 1019.57 1020.06 1020.56 1021.06 1021.46 1021.87 1022.20 1022.44 1022.57 1022.73 1022.97 1023.03 1023.00 1022.98 1022.78 1022.39 1022.18 1022.13 1022.48 1022.55 1022.59 1022.52 1022.19 1021.82 1021.41 1021.22 1021.03 1020.87 1020.58 1020.46 1020.32 1020.34 1020.37 1020.35 1020.23 1019.94 1019.80 1019.65 1019.40 1019.00 1018.56 1018.24
1018.25 1018.70 1019.24 1019.77 1020.22 1020.65 1021.04 1021.50 1021.78 1022.04 1022.21 1022.36 1022.46 1022.51 1022.36 1022.17 1021.87 1021.62 1021.48 1021.72 1022.06 1022.14 1022.09 1021.92 1021.63 1021.35 1021.15 1021.06 1020.91 1020.80 1020.69 1020.40 1020.26 1020.34 1020.19 1020.05 1019.92 1019.78 1019.74 1019.44 1019.22 1019.06 1018.72
1017.46 1017.88 1018.32 1018.86 1019.31 1019.77 1020.36 1020.70 1021.00 1021.32 1021.60 1021.77 1021.80 1021.86 1021.82 1021.56 1021.33 1021.13 1021.11 1021.29 1021.62 1021.68 1021.65 1021.46 1021.36 1021.22 1021.02 1020.76 1020.87 1020.82 1020.72 1020.52 1020.29 1020.08 1020.03 1019.83 1019.53 1019.57 1019.57 1019.54 1019.43 1019.06 1018.66
1016.67 1016.98 1017.45 1017.93 1018.47 1018.95 1019.43 1019.80 1020.12 1020.61 1020.90 1021.00 1021.03 1021.16 1021.28 1021.02 1020.86 1020.73 1020.72 1020.92 1021.18 1021.24 1021.17 1021.05 1021.01 1020.94 1020.74 1020.48 1020.67 1020.88 1020.80 1020.43 1020.03 1019.60 1019.38 1019.11 1019.00 1018.85 1018.99 1019.25 1019.31 1019.14 1019.00
1015.74 1015.97 1016.48 1017.05 1017.49 1017.95 1018.35 1018.90 1019.16 1019.56 1019.91 1020.23 1020.39 1020.46 1020.47 1020.42 1020.32 1020.23 1020.23 1020.42 1020.87 1020.91 1020.80 1020.75 1020.57 1020.49 1020.43 1020.22 1020.44 1020.80 1020.80 1020.57 1020.17 1019.88 1019.76 1019.64 1019.51 1019.40 1019.00 1019.24 1019.23 1019.28 1019.36
1014.61 1015.16 1015.71 1016.10 1016.48 1016.82 1017.35 1017.94 1018.35 1018.82 1019.20 1019.55 1019.76 1019.77 1019.84 1019.80 1019.66 1019.70 1019.66 1019.85 1020.18 1020.50 1020.62 1020.54 1020.27 1020.13 1020.07 1019.95 1019.98 1020.39 1020.41 1020.16 1020.03 1019.95 1019.80 1019.69 1019.62 1019.58 1019.56 1019.38 1019.26 1019.25 1019.17
1014.02 1014.46 1014.92 1015.31 1015.71 1016.13 1016.68 1017.20 1017.63 1018.11 1018.55 1018.85 1019.14 1019.23 1019.18 1019.14 1019.06 1018.96 1018.96 1018.97 1019.36 1019.82 1019.90 1019.80 1019.94 1019.95 1019.85 1019.74 1019.73 1019.93 1019.91 1020.07 1020.08 1020.00 1020.07 1020.04 1020.08 1019.61 1019.35 1019.35 1019.10 1019.07 1018.97
1013.77 1014.01 1014.28 1014.60 1015.02 1015.36 1015.96 1016.44 1017.09 1017.45 1017.77 1018.00 1018.40 1018.53 1018.49 1018.45 1018.44 1018.29 1018.23 1018.34 1018.57 1018.89 1019.16 1019.31 1019.47 1019.57 1019.53 1019.68 1019.64 1019.60 1019.95 1020.20 1020.25 1020.21 1020.18 1020.04 1019.81 1019.54 1019.15 1018.88 1018.74 1018.77 1018.63
1012.98 1013.34 1013.71 1014.09 1014.39 1014.70 1015.02 1015.36 1015.92 1016.37 1016.75 1017.07 1017.41 1017.63 1017.73 1017.85 1017.90 1017.81 1017.81 1017.84 1018.00 1018.47 1018.82 1019.13 1019.25 1019.34 1019.39 1019.58 1019.61 1019.78 1020.01 1020.21 1020.28 1020.28 1020.20 1019.92 1019.60 1019.33 1019.19 1019.06 1019.10 1019.00 1018.93
1012.13 1012.39 1012.76 1013.11 1013.54 1013.95 1014.07 1014.31 1014.64 1014.82 1015.22 1015.73 1016.10 1016.54 1016.88 1016.99 1016.96 1017.08 1017.33 1017.70 1018.00 1018.35 1018.85 1019.14 1019.29 1019.41 1019.57 1019.75 1019.85 1019.90 1020.04 1020.16 1020.29 1020.27 1020.17 1020.03 1019.78 1019.58 1019.46 1019.29 1019.30 1019.36 1019.39
1011.12 1011.33 1011.74 1012.30 1012.67 1013.00 1013.41 1013.68 1013.73 1013.90 1014.26 1014.57 1014.92 1015.36 1015.69 1015.79 1015.99 1016.35 1016.82 1017.29 1017.67 1018.01 1018.62 1019.00 1019.20 1019.36 1019.63 1019.78 1019.89 1020.01 1020.04 1019.98 1020.10 1020.13 1020.10 1020.03 1019.87 1019.77 1019.70 1019.59 1019.53 1019.63 1019.63
1010.42 1010.34 1010.43 1010.66 1011.31 1012.15 1012.61 1012.98 1013.26 1013.34 1013.56 1013.83 1014.09 1014.38 1014.75 1015.06 1015.32 1015.71 1016.21 1016.81 1017.27 1017.69 1018.24 1018.63 1018.85 1019.04 1019.35 1019.61 1019.72 1019.79 1019.85 1019.81 1019.79 1019.92 1019.90 1019.91 1019.89 1019.90 1019.92 1019.83 1019.72 1019.70 1019.67
1009.31 1009.47 1009.77 1009.99 1010.00 1010.15 1011.16 1011.94 1012.40 1012.81 1012.93 1013.12 1013.23 1013.57 1013.89 1014.48 1014.86 1015.22 1015.68 1016.40 1017.15 1017.32 1017.95 1018.25 1018.50 1018.66 1018.95 1019.25 1019.41 1019.49 1019.49 1019.54 1019.65 1019.71 1019.73 1019.82 1019.97 1019.94 1019.93 1019.97 1019.94 1019.79 1019.62
1008.24 1008.55 1008.91 1009.31 1009.59 1009.83 1009.71 1010.26 1011.32 1012.03 1012.33 1012.44 1012.86 1013.00 1013.27 1013.74 1014.23 1014.67 1015.21 1015.94 1016.56 1017.03 1017.39 1017.79 1017.93 1018.19 1018.46 1018.70 1018.91 1018.97 1019.06 1019.18 1019.31 1019.55 1019.63 1019.75 1019.84 1019.79 1019.72 1019.60 1019.45 1019.40 1019.35
1007.50 1007.47 1007.98 1008.33 1008.94 1009.55 1009.94 1009.96 1009.93 1010.83 1011.60 1011.88 1012.09 1012.36 1012.96 1013.44 1013.78 1014.10 1014.61 1015.38 1015.99 1016.39 1016.78 1017.13 1017.44 1017.65 1017.91 1018.18 1018.52 1018.64 1018.75 1018.87 1019.08 1019.31 1019.56 1019.69 1019.67 1019.52 1019.47 1019.40 1019.43 1019.43 1019.41
1006.91 1006.82 1007.05 1007.48 1007.98 1008.41 1009.07 1009.35 1009.73 1009.86 1010.29 1010.97 1011.25 1011.53 1011.87 1012.39 1012.96 1013.57 1014.16 1014.66 1015.18 1015.68 1016.10 1016.44 1016.84 1017.16 1017.43 1017.68 1017.98 1018.32 1018.45 1018.60 1018.77 1018.93 1019.23 1019.47 1019.50 1019.41 1019.23 1019.20 1019.29 1019.31 1019.29
1006.23 1006.32 1006.59 1006.55 1007.00 1007.34 1007.69 1008.15 1008.60 1009.09 1009.42 1009.84 1010.44 1010.74 1011.02 1011.64 1012.23 1012.86 1013.45 1013.89 1014.33 1014.76 1015.18 1015.71 1016.18 1016.58 1016.81 1017.11 1017.41 1017.82 1018.10 1018.26 1018.42 1018.49 1018.77 1019.10 1019.23 1019.21 1019.17 1019.12 1019.02 1019.05 1019.11
1005.76 1005.81 1006.09 1006.07 1006.19 1006.64 1006.94 1007.28 1007.51 1007.74 1008.24 1008.78 1009.34 1009.99 1010.35 1010.82 1011.42 1012.03 1012.57 1013.12 1013.66 1014.14 1014.62 1015.08 1015.60 1015.98 1016.27 1016.52 1016.83 1017.19 1017.57 1017.75 1017.87 1017.99 1018.28 1018.55 1018.89 1018.98 1018.99 1019.06 1019.06 1019.06 1018.92
1005.25 1005.12 1005.28 1005.48 1005.62 1005.84 1006.18 1006.39 1006.78 1006.98 1007.25 1007.82 1008.36 1008.94 1009.51 1009.94 1010.53 1011.10 1011.72 1012.36 1013.02 1013.55 1013.95 1014.44 1014.90 1015.33 1015.60 1016.02 1016.31 1016.64 1016.95 1017.26 1017.43 1017.67 1017.80 1018.21 1018.48 1018.66 1018.77 1018.74 1018.76 1018.89 1018.95
1004.99 1004.72 1004.61 1004.81 1004.97 1005.07 1005.32 1005.63 1005.81 1006.17 1006.41 1006.69 1007.32 1007.75 1008.48 1009.16 1009.77 1010.35 1010.95 1011.62 1012.34 1012.93 1013.44 1013.84 1014.26 1014.73 1015.08 1015.48 1015.95 1016.16 1016.44 1016.87 1017.16 1017.43 1017.72 1018.01 1018.19 1018.25 1018.37 1018.54 1018.52 1018.53 1018.68
1004.34 1004.06 1003.99 1004.13 1004.24 1004.30 1004.57 1004.75 1004.93 1005.17 1005.60 1005.64 1006.21 1006.80 1007.38 1008.23 1008.92 1009.57 1010.23 1010.91 1011.65 1012.26 1012.80 1013.22 1013.66 1014.06 1014.60 1014.88 1015.38 1015.89 1016.21 1016.48 1016.84 1017.15 1017.37 1017.72 1017.89 1017.89 1017.97 1018.05 1018.22 1018.30 1018.34
Wind_Speed
10 9 8 8 8 7 6 7 7 6 6 6 6 6 6 6 5 4 5 6 5 5 5 5 6 5 4 4 4 3 3 2 4 4 3 5 4 5 9 9 10 9 9
11 9 10 7 7 7 7 7 7 7 6 7 6 6 6 6 5 5 6 6 5 5 6 5 6 3 6 4 4 5 3 4 2 7 4 3 3 5 6 7 9 9 9
10 10 9 9 8 8 8 7 7 7 7 6 6 6 6 6 5 5 6 5 5 5 6 5 6 5 5 4 5 4 3 4 3 2 3 2 2 2 4 5 7 8 8
11 11 11 11 10 9 8 7 7 7 7 6 6 6 6 6 6 5 6 6 6 5 6 5 6 5 6 7 5 5 3 4 4 3 2 3 3 2 3 5 9 6 4
12 12 13 10 8 8 7 7 7 7 7 6 6 6 6 5 5 5 6 6 6 6 6 5 6 8 10 9 3 4 2 2 3 4 4 4 4 3 5 5 4 4 3
13 14 11 9 9 10 8 7 7 7 7 6 7 7 6 5 11 12 8 6 6 5 6 6 5 8 7 9 11 12 8 3 3 2 3 3 3 2 2 3 3 4 5
14 12 11 11 11 10 9 7 8 8 6 7 7 7 7 7 13 13 12 4 5 5 5 5 5 3 5 5 7 9 8 9 8 3 3 2 2 2 2 3 2 2 3
13 12 12 11 12 9 8 10 8 6 8 6 7 7 6 6 13 13 12 4 4 5 5 6 6 5 5 5 2 5 5 5 5 2 2 5 4 3 2 1 2 4 2
13 13 12 12 12 10 11 10 8 6 6 6 6 7 7 7 13 13 10 4 4 6 5 3 5 6 8 8 2 3 5 5 5 6 6 8 5 7 3 2 2 3 3
13 13 11 12 12 12 12 9 7 5 8 6 7 7 11 7 12 13 10 4 4 4 5 4 7 8 10 7 2 1 3 5 4 5 5 5 5 5 5 0 1 1 1
10 9 10 12 13 12 10 7 7 7 6 6 7 6 7 8 8 14 14 5 4 4 4 3 3 6 7 7 3 3 6 2 4 2 2 3 2 3 3 3 3 2 1
7 10 11 11 10 8 10 8 6 7 7 7 6 5 5 6 12 13 15 14 11 5 5 4 4 8 7 5 2 5 3 4 2 3 3 2 2 3 3 3 5 4 4
7 9 10 9 10 8 9 9 5 6 7 7 6 6 5 4 5 13 14 15 14 6 4 6 9 9 7 1 3 2 5 2 1 2 2 2 2 4 4 2 2 4 5
10 9 8 9 9 8 7 7 8 7 8 7 6 7 5 4 4 4 4 4 9 4 4 2 3 6 5 6 2 3 2 1 1 1 1 2 3 3 3 2 2 4 3
10 9 9 8 10 8 9 9 9 9 11 8 8 7 5 5 6 9 8 5 4 5 4 1 1 1 1 2 2 2 2 1 1 1 1 1 2 3 3 3 2 2 2
10 9 8 7 7 7 7 7 16 16 18 19 16 11 6 11 12 14 15 13 12 11 3 3 3 3 3 4 3 3 2 2 2 2 1 1 0 2 2 3 2 2 2
11 9 8 10 8 8 7 8 8 7 17 18 20 19 17 11 14 16 15 14 13 10 3 3 4 4 4 4 4 3 4 3 2 2 2 1 0 1 3 2 2 2 2
11 16 8 8 9 9 9 8 7 7 7 7 15 15 16 16 15 14 15 12 3 6 3 4 4 4 4 4 4 4 4 3 3 2 2 1 2 1 1 1 1 1 2
8 8 8 7 7 9 8 9 8 7 7 5 3 8 14 16 16 17 17 5 5 4 4 4 4 5 4 4 4 4 4 4 3 2 1 1 2 1 1 2 2 2 1
7 14 11 7 6 7 6 7 8 8 7 7 7 7 5 9 6 7 7 5 5 5 5 5 5 5 5 5 4 4 4 4 3 3 2 1 0 1 2 2 1 1 1
5 5 13 6 7 7 7 8 8 8 8 8 8 8 16 9 9 9 8 7 7 6 6 6 5 5 5 5 4 4 4 4 4 4 3 1 1 1 2 2 1 1 1
6 6 6 8 7 8 8 8 9 9 9 8 6 7 20 9 8 8 8 8 7 7 6 7 6 6 6 6 6 5 4 4 4 4 4 3 1 2 2 1 1 2 1
5 6 6 6 6 10 9 8 8 9 9 9 8 8 8 9 8 8 8 7 7 7 6 6 6 6 5 5 5 6 6 5 4 3 4 3 1 2 2 2 2 2 2
6 7 7 7 6 7 8 8 8 12 10 8 9 9 9 9 9 9 8 7 7 7 7 7 7 8 7 5 5 5 5 4 3 3 6 4 2 3 2 3 3 3 2
6 6 6 7 7 8 8 8 9 9 9 9 9 8 8 8 8 8 8 8 8 8 8 8 7 8 9 9 7 7 7 8 5 6 4 3 4 5 4 3 3 3 3
6 7 7 6 7 7 8 8 9 9 9 9 9 8 9 9 9 9 9 9 8 8 9 8 8 10 9 8 8 9 13 13 10 12 6 4 4 4 4 4 5 3 4
Wind_Direction
201 202 203 208 208 210 217 223 224 234 238 240 244 251 255 258 262 262 275 275 279 295 306 279 279 279 287 287 284 281 272 249 283 302 277 312 324 345 342 342 341 351 349
200 198 208 208 207 212 218 221 223 231 236 230 242 243 254 251 250 253 273 286 280 296 296 301 287 295 301 282 272 277 272 281 273 313 308 305 294 353 331 340 347 353 342
191 197 203 210 206 216 219 221 224 231 235 235 235 239 250 249 248 255 256 261 282 282 279 292 281 295 294 284 285 269 271 298 287 282 301 297 298 28 323 347 358 345 351
194 200 208 211 210 211 214 219 222 224 227 229 236 244 243 248 244 246 239 254 271 275 279 284 276 275 274 280 274 269 258 292 293 301 309 322 332 321 319 349 359 353 338
195 203 212 210 208 208 211 216 219 221 223 226 234 245 246 241 242 237 232 243 261 283 287 287 270 274 297 305 318 301 266 276 320 329 355 340 341 337 345 336 338 337 320
198 208 208 198 203 209 213 214 215 223 227 225 232 235 244 241 251 262 258 221 250 268 283 293 271 289 304 305 316 324 329 323 349 352 343 324 306 300 314 321 321 332 357
203 206 201 202 207 211 208 203 212 217 220 224 233 233 239 239 253 261 269 215 230 266 271 283 267 266 322 295 319 337 341 341 345 187 288 291 282 248 286 304 316 312 328
205 205 200 199 209 203 201 212 212 203 217 220 228 230 234 242 248 255 266 206 234 270 266 266 233 260 277 284 315 341 334 322 303 271 268 285 267 262 250 293 268 293 265
209 208 203 199 204 199 209 212 209 200 212 214 214 225 225 243 250 253 259 200 234 270 278 275 236 239 258 304 55 337 325 309 318 327 317 316 340 360 65 61 357 22 347
212 209 201 197 203 204 210 205 202 190 215 211 228 219 230 235 248 250 251 183 216 253 281 279 285 215 242 302 154 256 307 281 320 334 333 335 329 312 338 219 296 92 290
205 193 192 197 203 205 200 191 198 205 211 214 225 228 226 229 245 251 248 180 198 222 239 273 273 263 270 290 274 194 241 233 340 8 356 355 342 314 284 271 247 192 203
184 190 197 201 205 200 198 202 201 196 206 218 218 240 231 236 247 248 246 235 204 192 220 208 227 257 274 273 293 250 352 58 35 27 27 345 331 321 302 271 253 255 242
190 206 205 202 205 203 193 204 201 199 209 221 218 230 238 230 242 250 238 233 231 211 212 220 211 237 263 308 250 331 82 67 55 43 357 309 273 282 302 340 323 273 270
207 210 203 204 208 202 205 200 203 201 209 216 215 227 227 224 236 232 235 237 219 177 172 203 223 247 225 229 233 64 102 166 165 185 262 280 302 353 352 354 0 349 3
215 212 207 206 213 208 211 202 207 214 204 207 219 211 201 222 225 213 192 178 177 198 163 151 164 176 165 141 117 118 133 75 113 230 268 318 340 354 352 355 28 12 37
215 208 206 206 203 206 210 221 226 221 212 218 215 200 215 225 223 205 199 199 194 194 134 182 193 190 188 183 171 168 169 178 216 204 202 235 308 3 10 7 26 40 1
229 219 205 197 190 203 204 209 222 229 230 222 226 228 225 198 197 192 200 200 198 196 169 190 192 184 188 188 181 178 186 207 207 218 196 198 53 40 44 10 3 9 347
225 228 211 209 201 187 194 210 212 207 207 220 230 225 217 205 204 204 199 190 193 198 175 185 195 182 180 183 184 183 190 199 208 208 204 129 88 91 60 29 359 264 265
216 219 215 208 206 209 191 187 198 208 213 194 151 219 206 210 211 206 201 171 178 191 183 193 188 178 180 179 188 183 183 191 184 179 182 97 98 141 182 211 254 309 101
225 223 210 193 193 202 205 204 189 195 208 206 200 202 174 184 194 195 191 173 188 196 186 188 187 177 178 174 182 185 181 172 167 168 170 133 140 184 215 256 263 294 309
226 214 212 196 193 192 201 206 206 200 201 207 210 193 187 186 192 193 192 190 192 193 186 181 175 178 179 175 171 184 182 181 181 176 144 172 265 270 252 261 257 239 211
213 208 203 207 190 196 199 196 199 202 205 198 196 194 201 191 186 190 193 195 191 186 179 175 175 182 182 179 175 175 179 178 186 187 155 190 218 268 267 261 223 182 188
217 206 209 212 198 206 210 201 200 200 200 199 185 191 194 193 188 191 191 188 179 176 172 171 176 179 184 180 175 173 178 189 190 177 191 187 193 256 243 237 239 232 201
220 211 210 211 201 200 204 203 206 205 201 193 189 192 197 194 187 189 181 172 171 174 170 176 177 179 177 177 170 168 171 177 177 193 211 205 224 257 250 221 197 212 224
240 229 213 212 209 212 205 208 205 205 202 195 196 190 188 185 182 180 172 167 170 170 175 176 176 186 183 167 172 172 175 196 195 202 209 204 226 225 221 225 193 171 167
250 234 229 217 213 205 209 207 209 206 208 198 195 190 178 182 182 176 171 167 170 173 173 177 181 181 181 172 177 193 198 207 209 217 204 208 222 216 202 193 191 177 159